www.pogodaiklimat.ru

Погода и климат >> Архив погоды >> Австралия >> Южная Австралия >> Ли-Крик


ПОГОДА в Ли-Крике

  • Прогноз погоды в Ли-Крике
  • Монитор погоды в Ли-Крике

АРХИВ ПОГОДЫ в Ли-Крике

Время (UTC), дата Ветер
(напр.,м/с)
 
Видим.   Явления Облачность Т
(С)
Тd
(С)
f
(%)
Тe
(С)
Тes
(С)
Комфортность P
(гПа)
Po
(гПа)
Тmin
(С)
Tmax
(С)
R
(мм)
R24
(мм)
S
(см)
07 19.06 З 4 н/о н/о +12.0 -0.5 42 +11 +11 1025.5 994.3
08 19.06 ЮЗ 5 н/о н/о +11.0 -0.8 44 +9 +9 1025.8 994.6
10 19.06 ЮЗ 3 н/о н/о +7.8 -0.4 56 +6 +6 1026.5 995.2
11 19.06 ЮЗ 3 н/о н/о +6.7 -0.3 61 +4 +4 1026.6 995.3
13 19.06 ЮЗ 3 н/о н/о +5.5 -0.3 66 +3 +3 1026.7 995.4
14 19.06 ЮЗ 2 н/о н/о +4.8 0.0 71 +2 +2 1026.7 995.4 +14.0
16 19.06 ЮЗ 2 н/о н/о +2.9 -0.7 77 +1 +1 1026.4 995.1
17 19.06 ЮЗ 3 н/о н/о +1.9 -1.2 80 -2 -2 1026.2 995.0
19 19.06 ЮЗ 1 н/о н/о +0.5 -1.7 85 0 0 1026.0 994.8
20 19.06 ЮЗ 2 н/о н/о +0.9 -1.7 83 -3 -3 1026.5 995.2
22 19.06 ЮЗ 2 н/о н/о +0.4 -1.5 87 -3 -3 1027.3 996.0
23 19.06 ЮЗ 2 н/о н/о +2.9 -0.9 76 -0 -0 1027.8 996.5
01 20.06 штиль 0 н/о н/о +11.8 0.0 44 +12 +12 1028.2 996.9
02 20.06 ЮЗ 2 н/о н/о +12.2 -1.0 40 +12 +12 1027.6 996.3 -0.3
04 20.06 З 2 н/о н/о +12.9 -1.8 36 +13 +13 1025.9 994.7
05 20.06 З 3 н/о н/о +13.2 -1.9 35 +13 +13 1025.6 994.4
07 20.06 ЮЗ 3 н/о н/о +12.9 -1.4 37 +12 +12 1025.6 994.4
08 20.06 Ю 3 н/о н/о +10.7 -1.4 43 +9 +9 1026.0 994.8
10 20.06 Ю 3 н/о н/о +8.0 -0.7 54 +6 +6 1027.1 995.8
11 20.06 Ю 2 н/о н/о +7.5 -0.5 57 +6 +6 1027.5 996.2
13 20.06 Ю 3 н/о н/о +4.9 -0.9 66 +2 +2 1028.1 996.8
14 20.06 Ю 3 н/о н/о +3.9 -1.1 70 0 0 1027.9 996.6 +14.2
16 20.06 Ю 3 н/о н/о +4.1 -1.1 69 +1 +1 1027.5 996.2
17 20.06 Ю 2 н/о н/о +3.0 -1.5 72 0 0 1027.4 996.1
19 20.06 Ю 3 н/о н/о +1.9 -2.1 75 -2 -2 1027.5 996.2
20 20.06 Ю 2 н/о н/о +2.0 -1.6 77 -1 -1 1028.0 996.7
22 20.06 ЮВ 4 н/о н/о +1.6 -1.8 78 -3 -3 1028.7 997.4
23 20.06 ЮВ 3 н/о н/о +5.5 -0.5 65 +3 +3 1029.3 998.0
01 21.06 С 4 н/о н/о +12.5 -2.1 36 +11 +11 1030.8 999.4
02 21.06 С 3 н/о н/о +13.6 -1.9 34 +13 +13 1030.1 998.7 +1.2
04 21.06 СВ 2 н/о н/о +14.4 -2.1 32 +14 +14 1028.4 997.1
05 21.06 СЗ 2 н/о н/о +15.1 -1.9 31 +15 +15 1027.6 996.3
07 21.06 З 2 н/о н/о +14.8 -2.1 31 +15 +15 1027.8 996.5
08 21.06 штиль 0 н/о н/о +13.9 -2.1 33 +14 +14 1028.1 996.8
10 21.06 В 3 н/о н/о +10.2 -1.8 43 +9 +9 1029.1 997.8
11 21.06 ЮВ 3 н/о н/о +8.9 -1.8 47 +7 +7 1029.3 998.0
13 21.06 штиль 0 н/о н/о +6.5 -1.9 55 +6 +6 1029.5 998.2
14 21.06 штиль 0 н/о н/о +6.7 -1.9 54 +6 +6 1029.5 998.2 +15.7
16 21.06 штиль 0 н/о н/о +4.7 -2.2 61 +4 +4 1028.7 997.4
17 21.06 штиль 0 н/о н/о +4.4 -2.2 62 +4 +4 1028.8 997.5
19 21.06 штиль 0 н/о н/о +4.3 -3.0 59 +4 +4 1028.4 997.1
20 21.06 штиль 0 н/о н/о +4.9 -3.1 56 +4 +4 1028.5 997.2
22 21.06 ЮВ 3 н/о н/о +6.1 -2.7 53 +4 +4 1030.1 998.7
23 21.06 штиль 0 н/о н/о +8.0 -2.6 47 +8 +8 1030.5 999.1
01 22.06 В 4 н/о н/о +11.9 -1.3 40 +10 +10 1030.8 999.4
02 22.06 В 4 н/о н/о +13.1 -1.6 36 +12 +12 1030.1 998.7 +3.4
04 22.06 В 3 н/о н/о +14.1 -3.2 30 +14 +14 1027.7 996.4
05 22.06 Ю 4 н/о н/о +14.1 -3.2 30 +13 +13 1026.9 995.6
07 22.06 В 5 н/о н/о +13.7 -3.1 31 +12 +12 1027.1 995.8
08 22.06 В 5 н/о н/о +11.6 -2.9 36 +10 +10 1027.3 996.0
10 22.06 ЮВ 4 н/о н/о +8.2 -2.1 48 +5 +5 1028.3 997.0
11 22.06 ЮВ 3 н/о н/о +6.0 -2.3 55 +4 +4 1028.6 997.3
13 22.06 штиль 0 н/о н/о +4.8 -2.1 61 +4 +4 1028.4 997.1
14 22.06 ЮВ 2 н/о н/о +5.3 -1.6 61 +4 +4 1028.2 996.9 +15.0
16 22.06 ЮВ 3 н/о н/о +4.5 -1.5 65 +2 +2 1027.6 996.3
17 22.06 ЮВ 1 н/о н/о +3.2 -1.7 70 +2 +2 1027.3 996.0
19 22.06 ЮВ 2 н/о н/о +4.6 -0.6 69 +2 +2 1028.1 996.8
20 22.06 ЮВ 3 н/о н/о +3.5 -1.1 72 0 0 1028.1 996.8
22 22.06 ЮВ 2 н/о н/о +3.7 -1.1 71 +2 +2 1029.2 997.9
23 22.06 ЮВ 2 н/о н/о +5.7 -0.1 66 +4 +4 1029.3 998.0
01 23.06 В 6 н/о н/о +11.2 -0.9 43 +9 +9 1029.5 998.2
02 23.06 В 5 н/о н/о +11.9 -1.9 38 +10 +10 1028.9 997.6 +2.3
04 23.06 ЮВ 3 н/о н/о +12.7 -2.7 34 +12 +12 1027.3 996.0
05 23.06 ЮВ 3 н/о н/о +13.1 -3.2 32 +12 +12 1026.9 995.6
07 23.06 В 4 н/о н/о +12.7 -2.7 34 +11 +11 1027.1 995.8
08 23.06 В 5 н/о н/о +10.5 -2.8 39 +8 +8 1027.6 996.3
10 23.06 В 5 н/о н/о +7.5 -3.1 47 +4 +4 1028.6 997.3
11 23.06 В 5 н/о н/о +6.4 -3.5 49 +3 +3 1028.7 997.4
13 23.06 В 3 н/о н/о +5.4 -3.1 54 +3 +3 1028.3 997.0
14 23.06 ЮВ 4 н/о н/о +5.0 -3.5 54 +1 +1 1028.0 996.7 +13.9
16 23.06 В 6 н/о н/о +6.2 -1.9 56 +2 +2 1027.7 996.4
17 23.06 ЮВ 4 н/о н/о +6.1 -1.8 57 +3 +3 1027.6 996.3
19 23.06 штиль 0 н/о н/о +5.1 -1.3 63 +5 +5 1029.1 997.8
20 23.06 В 3 н/о н/о +4.0 -1.8 66 +1 +1 1028.8 997.5
22 23.06 В 3 н/о н/о +1.5 -2.6 74 -2 -2 1029.9 998.5
23 23.06 В 4 н/о н/о +6.0 -1.2 60 +3 +3 1030.2 998.8
01 24.06 СВ 6 н/о н/о +10.8 -0.9 44 +8 +8 1029.9 998.5
02 24.06 С 7 н/о н/о +12.2 -1.3 39 +10 +10 1029.0 997.7 +0.2
04 24.06 СВ 5 н/о н/о +15.1 -1.5 32 +14 +14 1027.8 996.5
05 24.06 СВ 7 н/о н/о +14.6 -1.9 32 +13 +13 1027.0 995.7
07 24.06 С 7 н/о н/о +13.7 -2.7 32 +12 +12 1026.6 995.3
08 24.06 С 5 н/о н/о +12.7 -2.3 35 +11 +11 1027.4 996.1
10 24.06 С 2 н/о н/о +10.8 -1.9 41 +10 +10 1028.6 997.3
11 24.06 СВ 3 н/о н/о +10.5 -1.9 42 +9 +9 1028.5 997.2
13 24.06 СВ 2 н/о н/о +9.2 -0.7 50 +8 +8 1028.9 997.6
14 24.06 СВ 3 н/о н/о +9.0 -0.3 52 +7 +7 1028.8 997.5 +16.0
16 24.06 В 5 н/о н/о +9.5 -0.7 49 +7 +7 1028.5 997.2
17 24.06 В 4 н/о н/о +9.2 -0.7 50 +7 +7 1028.7 997.4
19 24.06 В 1 н/о н/о +8.9 -0.4 52 +10 +10 1029.3 998.0
20 24.06 В 4 н/о н/о +8.9 -0.4 52 +7 +7 1028.7 997.4
22 24.06 В 2 н/о н/о +8.5 -0.5 53 +7 +7 1029.9 998.5
23 24.06 В 5 н/о н/о +10.7 -1.4 43 +8 +8 1029.7 998.3
01 25.06 С 5 н/о н/о +16.1 -1.5 30 +15 +15 1030.2 998.8
02 25.06 С 4 н/о н/о +17.1 -1.1 29 +17 +17 1030.0 998.6 +8.1
04 25.06 С 3 н/о н/о +18.0 -1.8 26 +18 +18 1028.4 997.1
05 25.06 штиль 0 н/о н/о +19.2 -1.3 25 +19 +19 1028.0 996.7
07 25.06 В 2 н/о н/о +17.8 -1.9 26 +18 +18 1027.9 996.6
08 25.06 штиль 0 н/о н/о +16.2 -1.8 29 +16 +16 1028.3 997.0
10 25.06 В 2 н/о н/о +11.6 -2.6 37 +11 +11 1029.5 998.2
11 25.06 В 2 н/о н/о +10.8 -1.9 41 +10 +10 1030.0 998.6
13 25.06 В 2 н/о н/о +9.8 -1.3 46 +9 +9 1030.2 998.8
14 25.06 В 2 н/о н/о +8.4 -0.6 53 +7 +7 1030.3 998.9 +19.4
16 25.06 В 3 н/о н/о +7.7 -0.5 56 +6 +6 1029.9 998.5
17 25.06 В 2 н/о н/о +6.9 -0.3 60 +5 +5 1029.7 998.3
19 25.06 В 2 н/о н/о +6.1 -0.6 62 +4 +4 1028.9 997.6
20 25.06 В 6 н/о н/о +7.8 +0.8 61 +4 +4 1028.9 997.6
22 25.06 В 5 н/о н/о +8.2 +2.0 65 +5 +5 1029.3 998.0
23 25.06 В 5 н/о н/о +12.7 +3.4 53 +11 +11 1029.9 998.5
01 26.06 СВ 7 н/о н/о +17.8 +3.3 38 +17 +17 1030.1 998.7
02 26.06 СВ 5 н/о н/о +19.4 +3.6 35 +20 +20 1029.1 997.8 +5.9
04 26.06 СВ 6 н/о н/о +20.6 +3.8 33 +21 +21 комфорт 1027.6 996.3
05 26.06 СВ 5 н/о н/о +20.4 +3.2 32 +21 +21 комфорт 1026.8 995.5
07 26.06 СВ 5 н/о н/о +19.7 +3.4 34 +20 +20 1026.5 995.2

 

Местоположение метеостанции Ли-Крик (Южная Австралия, Австралия): широта -30.60 долгота 138.42 высота над уровнем моря 11 м.

В архиве по умолчанию представлена погода в Ли-Крике за последнюю неделю. Архивные данные за месяц целиком и за предыдущие месяцы, начиная с января 2011 года, Вы можете получить, выбрав интересующий диапазон дат из раскрывающегося списка и нажав кнопку "Ввод!".


*Определитесь, кто Вы:
робот инопланетянин человек

Внимание! Время в таблицах - всемирное. Для получения местного времени необходимо прибавить поправку, которая равна 9.5 ч.

Смотрите также архив погоды в соседних городах и на ближайших метеорологических станциях:

Погода в Марри (Южная Австралия, Австралия) (110 км)
Погода в Олимпик Дэм (Южная Австралия, Австралия) (148 км)
Погода на Аэродроме Вумера (Южная Австралия, Австралия) (165 км)
Погода в Порт Огаста (Южная Австралия, Австралия) (224 км)
Погода в Юнте (Южная Австралия, Австралия) (245 км)
Погода в Уиолле (Южная Австралия, Австралия) (288 км)
Погода в Фоулерс Гэп (Новый Южный Уэльс, Австралия) (318 км)
Погода в Мумбе (Южная Австралия, Австралия) (327 км)
Погода в Брокен-Хилл аэропорту (Новый Южный Уэльс, Австралия) (328 км)
Погода в Сноутауне (Южная Австралия, Австралия) (354 км)

Пояснения к столбцам:

Ветер - указаны скорость ветра в м/с - средняя за 10 мин, порывы в срок и между сроками (в фигурных скобках) и направление, откуда дует ветер: С - северный, СВ - северо-восточный, В - восточный, ЮВ - юго-восточный, Ю - южный, ЮЗ - юго-западный, З - западный, СЗ - северо-западный.
Видимость - горизонтальная дальность видимости в метрах или километрах. При видимости от 1 до 10 км при отсутствии осадков обычно наблюдается дымка, при ухудшении видимости до 1 км и менее - туман. В сухую погоду видимость может ухудшаться дымом, пылью или мглою.
Явления - указаны атмосферные явления, наблюдавшиеся в срок или в последний час перед сроком; фигурными скобками обозначены явления, наблюдавшиеся между сроками (за 1-3 часа до срока); квадратными скобками обозначены град или гололедные отложения с указанием их диаметра в мм.
Облачность - указаны через наклонную черту общая и нижняя облачность в баллах и высота нижней границы облаков в метрах; квадратными скобками обозначены формы облаков: Ci - перистые, Cs - перисто-слоистые, Cc - перисто-кучевые, Ac - высококучевые, As - высокослоистые, Sc - слоисто-кучевые, Ns - слоисто-дождевые, Cu - кучевые, Cb - кучево-дождевые. Подробнее классификацию облаков см. в Атласе облаков (PDF).
T - Температура воздуха - температура, измеренная на высоте 2 м над землей.
Td - Температура точки росы - температура, при понижении до которой содержащийся в воздухе водяной пар достигнет насыщения.
f - Относительная влажность воздуха - влажноcть воздуха, измеренная на высоте 2 м над землей.
Te - Эффективная температура - температура, которую ощущает одетый по сезону человек в тени. Характеристика душности погоды. При расчете учитывается влияние влажности воздуха и скорости ветра на теплоощущения человека.
Tes - Эффективная температура на солнце - температура, которую ощущает человек, с поправкой на солнечный нагрев. Характеристика знойности погоды. Зависит от высоты солнца над горизонтом, облачности и скорости ветра. Ночью, в пасмурную погоду, а также при ветре 12 м/с и более поправка равна нулю.
P - Атмосферное давление - приведенное к уровню моря атмосферное давление.
Po - Атмосферное давление - измеренное на уровне метеостанции атмосферное давление.
Tmin - Минимальная температура - минимум температуры воздуха на высоте 2 м над землей.
Tmax - Максимальная температура - максимум температуры воздуха на высоте 2 м над землей.
R - Количество осадков - Количество выпавших осадков за период времени, мм. При наведении курсора мыши на число - период времени, за который выпало указанное количество осадков.
R24 - Количество осадков - Количество выпавших осадков за 24 часа, мм.
S - Снежный покров - Высота снежного покрова, см. При наведении курсора мыши на число - состояние снежного покрова и степень покрытия местности в баллах.